Weather History for KMSS - November, 2011

Change the Weather History Date:

Thursday, November 24, 2011

  Actual Average Record
Temperature  
Mean Temperature 36 °F 32 °F  
Max Temperature 44 °F 40 °F 70 °F (2014)
Min Temperature 28 °F 24 °F -8 °F (2000)
Degree Days  
Heating Degree Days 29 33  
Month to date heating degree days 569 682  
Since 1 July heating degree days 1174 1563  
Cooling Degree Days 0 0  
Month to date cooling degree days 0  
Year to date cooling degree days 363  
Moisture  
Dew Point 31 °F    
Average Humidity 86    
Maximum Humidity 92    
Minimum Humidity 79    
Precipitation  
Precipitation 0.00 in 0.09 in 0.94 in (2004)
Month to date precipitation 0.76 2.47  
Year to date precipitation 28.13 31.97  
Sea Level Pressure  
Sea Level Pressure 30.09 in    
Wind  
Wind Speed 7 mph (SW)    
Max Wind Speed 15 mph    
Max Gust Speed 20 mph    
Visibility 8 miles    
Events      
T = Trace of Precipitation, MM = Missing Value Source: NWS Daily Summary

Daily Weather History Graph

Daily Weather History Graph

Search for Another Location

Airport or City:

Trip Planner

Search our weather history database for the weather conditions in past years. The results will help you decide how hot, cold, wet, or windy it might be!

Date:

Astronomy

Nov. 24, 2011 Rise Set
Actual Time 7:08 AM EST 4:23 PM EST
Civil Twilight 6:35 AM EST 4:55 PM EST
Nautical Twilight 5:59 AM EST 5:31 PM EST
Astronomical Twilight 5:24 AM EST 6:06 PM EST
Moon 6:24 AM EST (11/24) 3:50 PM EST (11/24)
Length of Visible Light 10h 19m
Length of Day
9h 15m
Waning Crescent, 0% of the Moon is Illuminated
Nov 24
Waning Crescent
Nov 25
New
Dec 2
First Quarter
Dec 10
Full
Dec 17
Last Quarter

Hourly Weather History & Observations

Time (EST) Temp. Windchill Dew Point Humidity Pressure Visibility Wind Dir Wind Speed Gust Speed Precip Events Conditions
12:53 AM 30.0 °F - 27.0 °F 88% 30.11 in 9.0 mi Calm Calm - N/A   Overcast
1:53 AM 30.0 °F 26.5 °F 26.1 °F 85% 30.10 in 9.0 mi SSW 3.5 mph - N/A   Overcast
2:53 AM 30.9 °F 25.2 °F 27.0 °F 85% 30.09 in 10.0 mi South 5.8 mph - N/A   Overcast
3:53 AM 30.9 °F 26.2 °F 28.0 °F 89% 30.07 in 10.0 mi South 4.6 mph - N/A   Overcast
4:53 AM 30.9 °F 27.5 °F 27.0 °F 85% 30.09 in 10.0 mi WSW 3.5 mph - N/A   Mostly Cloudy
5:36 AM 28.4 °F 21.2 °F 26.6 °F 93% 30.07 in 10.0 mi SW 6.9 mph - N/A   Scattered Clouds
5:53 AM 28.9 °F 21.9 °F 26.1 °F 89% 30.08 in 10.0 mi SW 6.9 mph - N/A   Clear
6:21 AM 32.0 °F 23.0 °F 28.4 °F 87% 30.06 in 10.0 mi SSW 11.5 mph - N/A   Mostly Cloudy
6:53 AM 33.1 °F 26.1 °F 28.9 °F 85% 30.10 in 10.0 mi WSW 8.1 mph - N/A   Overcast
7:30 AM 33.8 °F 24.8 °F 30.2 °F 87% 30.08 in 10.0 mi SSW 12.7 mph - N/A   Overcast
7:53 AM 33.8 °F 25.3 °F 30.2 °F 87% 30.09 in 10.0 mi SW 11.5 mph - N/A   Overcast
8:01 AM 33.8 °F 25.3 °F 30.2 °F 87% 30.09 in 10.0 mi SW 11.5 mph - N/A   Overcast
8:38 AM 35.6 °F 28.6 °F 30.2 °F 81% 30.09 in 10.0 mi SW 9.2 mph - N/A   Overcast
8:53 AM 35.1 °F 27.9 °F 30.9 °F 85% 30.12 in 10.0 mi SW 9.2 mph - N/A   Overcast
9:10 AM 35.6 °F 28.0 °F 30.2 °F 81% 30.10 in 10.0 mi SW 10.4 mph - N/A   Overcast
9:53 AM 35.1 °F 27.9 °F 30.9 °F 85% 30.12 in 10.0 mi SW 9.2 mph - N/A   Overcast
10:53 AM 36.0 °F 29.0 °F 32.0 °F 86% 30.12 in 10.0 mi SSW 9.2 mph - N/A   Overcast
11:53 AM 37.0 °F 29.8 °F 32.0 °F 82% 30.10 in 10.0 mi SW 10.4 mph - N/A   Overcast
12:53 PM 37.9 °F 31.5 °F 33.1 °F 83% 30.09 in 10.0 mi SW 9.2 mph - N/A   Overcast
1:53 PM 37.9 °F 30.5 °F 34.0 °F 86% 30.07 in 9.0 mi SSW 11.5 mph - N/A   Overcast
2:53 PM 37.9 °F 30.9 °F 34.0 °F 86% 30.08 in 8.0 mi SW 10.4 mph - N/A   Overcast
3:53 PM 39.0 °F 33.4 °F 34.0 °F 82% 30.08 in 7.0 mi SW 8.1 mph - N/A   Overcast
4:53 PM 37.4 °F 32.8 °F 33.8 °F 87% 30.08 in 8.0 mi SW 5.8 mph - N/A   Overcast
5:53 PM 37.9 °F 34.4 °F 34.0 °F 86% 30.10 in 7.0 mi SSW 4.6 mph - N/A   Overcast
6:53 PM 39.0 °F 32.8 °F 35.1 °F 86% 30.10 in 7.0 mi SW 9.2 mph - N/A   Overcast
7:53 PM 39.0 °F 34.8 °F 35.1 °F 86% 30.09 in 5.0 mi SW 5.8 mph - N/A   Overcast
8:53 PM 37.9 °F 34.4 °F 35.1 °F 89% 30.08 in 4.0 mi SW 4.6 mph - N/A   Overcast
9:12 PM 37.4 °F 32.8 °F 35.6 °F 93% 30.06 in 4.0 mi SW 5.8 mph - N/A   Overcast
9:53 PM 37.9 °F 35.5 °F 35.1 °F 89% 30.06 in 3.0 mi SW 3.5 mph - N/A   Overcast
10:53 PM 41.0 °F 34.3 °F 37.0 °F 86% 30.04 in 5.0 mi SSW 11.5 mph - N/A   Overcast
11:53 PM 43.0 °F 36.4 °F 37.9 °F 82% 30.03 in 6.0 mi SW 12.7 mph - N/A   Haze